Weather History for Port Isabel, TX

Change the Weather History Date:

Saturday, March 22, 2014

  Actual Average Record
Temperature  
Mean Temperature 77 °F -  
Max Temperature 82 °F - - ()
Min Temperature 73 °F - - ()
Cooling Degree Days 12    
Growing Degree Days 27 (Base 50)    
Moisture  
Dew Point 71 °F    
Average Humidity 87    
Maximum Humidity 94    
Minimum Humidity 72    
Precipitation  
Precipitation 0.00 in - - ()
Sea Level Pressure  
Sea Level Pressure 29.91 in    
Wind  
Wind Speed 9 mph (SE)    
Max Wind Speed 15 mph    
Max Gust Speed 21 mph    
Visibility 7 miles    
Events      
T = Trace of Precipitation, MM = Missing Value Source: NWS Daily Summary

Daily Weather History Graph

Daily Weather History Graph

Search for Another Location

Airport:

Trip Planner

Search our weather history database for the weather conditions in past years. The results will help you decide how hot, cold, wet, or windy it might be!

Date:

Astronomy

Mar. 22, 2014 Rise Set
Actual Time 7:31 AM CDT 7:41 PM CDT
Civil Twilight 7:08 AM CDT 8:04 PM CDT
Nautical Twilight 6:41 AM CDT 8:31 PM CDT
Astronomical Twilight 6:14 AM CDT 8:58 PM CDT
Moon 12:35 AM CDT (3/22) 11:43 AM CDT (3/22)
Length of Visible Light 12h 56m
Length of Day
12h 10m
Waning Gibbous, 65% of the Moon is Illuminated
Mar 22
Waning Gibbous
Mar 23
Last Quarter
Mar 30
New
Apr 7
First Quarter
Apr 15
Full

Hourly Weather History & Observations

Time (CDT) Temp. Heat Index Dew Point Humidity Pressure Visibility Wind Dir Wind Speed Gust Speed Precip Events Conditions
12:44 AM 73.4 °F - 71.6 °F 94% 29.90 in 8.0 mi SSE 9.2 mph - N/A   Overcast
12:53 AM 73.9 °F - 71.1 °F 91% 29.90 in 8.0 mi SSE 11.5 mph - N/A   Overcast
1:53 AM 73.9 °F - 71.1 °F 91% 29.89 in 8.0 mi SSE 9.2 mph - N/A   Overcast
2:32 AM 73.4 °F - 71.6 °F 94% 29.88 in 8.0 mi SSE 9.2 mph - N/A   Mostly Cloudy
2:53 AM 73.9 °F - 71.1 °F 91% 29.88 in 8.0 mi SSE 9.2 mph - N/A   Overcast
3:05 AM 73.4 °F - 71.6 °F 94% 29.88 in 8.0 mi SSE 6.9 mph - N/A   Overcast
3:53 AM 73.9 °F - 70.0 °F 87% 29.88 in 8.0 mi South 8.1 mph - N/A   Overcast
4:53 AM 73.0 °F - 70.0 °F 90% 29.88 in 8.0 mi South 5.8 mph - N/A   Overcast
5:36 AM 73.4 °F - 69.8 °F 88% 29.88 in 8.0 mi SSE 9.2 mph - N/A   Overcast
5:53 AM 73.0 °F - 70.0 °F 90% 29.88 in 7.0 mi SSE 10.4 mph - N/A   Overcast
6:49 AM 73.4 °F - 69.8 °F 88% 29.90 in 7.0 mi SSE 6.9 mph - N/A   Overcast
6:53 AM 73.0 °F - 70.0 °F 90% 29.90 in 7.0 mi SSE 6.9 mph - N/A   Overcast
7:53 AM 73.0 °F - 70.0 °F 90% 29.92 in 7.0 mi SE 8.1 mph - N/A   Overcast
8:53 AM 73.9 °F - 69.1 °F 85% 29.94 in 7.0 mi SE 5.8 mph - N/A   Overcast
9:10 AM 73.4 °F - 69.8 °F 88% 29.94 in 7.0 mi SE 9.2 mph - N/A   Overcast
9:53 AM 75.0 °F - 70.0 °F 84% 29.95 in 8.0 mi SE 9.2 mph - N/A   Overcast
10:19 AM 75.2 °F - 69.8 °F 83% 29.96 in 8.0 mi SE 8.1 mph - N/A   Overcast
10:53 AM 73.9 °F - 70.0 °F 87% 29.96 in 8.0 mi ESE 8.1 mph - N/A   Overcast
11:53 AM 78.1 °F - 71.1 °F 79% 29.94 in 8.0 mi SE 15.0 mph 19.6 mph N/A   Overcast
12:07 PM 78.8 °F - 71.6 °F 78% 29.94 in 8.0 mi SSE 13.8 mph - N/A   Overcast
12:53 PM 79.0 °F - 70.0 °F 74% 29.94 in 8.0 mi SSE 11.5 mph - N/A   Overcast
1:53 PM 79.0 °F - 71.1 °F 77% 29.92 in 8.0 mi ESE 12.7 mph - N/A   Overcast
2:50 PM 80.6 °F 84.6 °F 71.6 °F 74% 29.89 in 9.0 mi ESE 10.4 mph - N/A   Overcast
2:53 PM 81.0 °F 84.9 °F 71.1 °F 72% 29.89 in 9.0 mi ESE 11.5 mph - N/A   Overcast
3:53 PM 79.0 °F - 70.0 °F 74% 29.88 in 9.0 mi ESE 15.0 mph - N/A   Overcast
4:53 PM 77.0 °F - 71.1 °F 82% 29.88 in 8.0 mi ESE 12.7 mph 20.7 mph N/A   Overcast
5:53 PM 75.0 °F - 71.1 °F 87% 29.88 in 7.0 mi ESE 12.7 mph - N/A   Overcast
6:16 PM 75.2 °F - 71.6 °F 89% 29.89 in 6.0 mi ESE 12.7 mph - N/A   Overcast
6:26 PM 75.2 °F - 71.6 °F 89% 29.89 in 6.0 mi ESE 13.8 mph - N/A   Overcast
6:53 PM 75.0 °F - 71.1 °F 87% 29.89 in 6.0 mi East 11.5 mph - N/A   Overcast
7:28 PM 75.2 °F - 71.6 °F 89% 29.90 in 6.0 mi East 10.4 mph - N/A   Overcast
7:44 PM 73.4 °F - 71.6 °F 94% 29.90 in 5.0 mi East 11.5 mph - N/A   Overcast
7:53 PM 73.9 °F - 72.0 °F 93% 29.90 in 6.0 mi East 8.1 mph - N/A   Overcast
8:03 PM 75.2 °F - 71.6 °F 89% 29.90 in 6.0 mi ESE 8.1 mph - N/A   Overcast
8:10 PM 75.2 °F - 71.6 °F 89% 29.90 in 6.0 mi ESE 9.2 mph - N/A   Overcast
8:20 PM 75.2 °F - 71.6 °F 89% 29.90 in 6.0 mi East 10.4 mph - N/A   Overcast
8:53 PM 75.0 °F - 72.0 °F 90% 29.91 in 5.0 mi East 6.9 mph - N/A   Mostly Cloudy
9:53 PM 73.9 °F - 72.0 °F 93% 29.94 in 4.0 mi East 8.1 mph - N/A   Overcast
10:45 PM 73.4 °F - 71.6 °F 94% 29.96 in 1.8 mi ESE 6.9 mph - N/A   Overcast
10:53 PM 73.9 °F - 72.0 °F 93% 29.96 in 0.8 mi ESE 8.1 mph - N/A   Overcast
11:35 PM 73.4 °F - 71.6 °F 94% 29.97 in 1.8 mi SE 6.9 mph - N/A   Overcast
11:44 PM 73.4 °F - 71.6 °F 94% 29.98 in 2.0 mi SE 8.1 mph - N/A   Overcast
11:53 PM 73.0 °F - 71.1 °F 93% 29.98 in 2.5 mi SE 6.9 mph - N/A   Overcast